Regional Weather Roundup
Issued by NWS State College, PA

Home | Current Version | Previous Version | Graphics & Text | Print | Product List | Glossary Off
Versions: 1 2 3 4 5 6 7 8 9 10 11 12 13 14 15 16 17 18 19 20 21 22 23 24 25 26 27 28 29 30 31 32 33 34 35 36 37 38 39 40 41 42 43 44 45 46 47 48 49 50

000
ASUS41 KCTP 241703
RWRCTP

REGIONAL WEATHER ROUNDUP
NATIONAL WEATHER SERVICE STATE COLLEGE PA
100 PM EDT SUN MAY 24 2015

Note: "fair" indicates few or no clouds below 12,000 feet with no
significant weather and/or obstructions to visibility.

* = STATION THAT DOES NOT REPORT PRECIPITATION /E.G. RAIN...SNOW...ETC/
    THUNDER OR FOG.

PAZ002>004-007>009-013>016-020>023-029>032-241800-
WESTERN PENNSYLVANIA

CITY           SKY/WX    TMP DP  RH WIND       PRES   REMARKS
ERIE           MOSUNNY   79  45  29 W10       30.29S
MEADVILLE      SUNNY     76  46  34 W9        30.31F
FRANKLIN*      SUNNY     75  46  35 SW9G16    30.33F
NEW CASTLE     FAIR      80  46  30 SW6       30.32F
BEAVER COUNTY  NOT AVBL
BUTLER*        MOSUNNY   77  46  33 W7        30.34F
PITTSBURGH INT PTSUNNY   76  43  30 S3        30.32F
PITTSBURGH     MOSUNNY   75  37  25 S5        30.33S
INDIANA*       SUNNY     73  45  35 W6        30.37F
LATROBE        MOSUNNY   75  41  29 CALM      30.35F
WASHINGTON CO* SUNNY     75  45  33 SE3       30.35F
$$

PAZ004>006-010>012-017>019-024>028-033>037-041-042-045-046-049>053-241800-
CENTRAL PENNSYLVANIA

CITY           SKY/WX    TMP DP  RH WIND       PRES   REMARKS
BRADFORD       PTSUNNY   73  41  31 SW8       30.33F
DUBOIS         MOSUNNY   76  42  29 SW8G22    30.33F
CLEARFIELD     MOSUNNY   76  43  30 W9        30.33F
JOHNSTOWN      MOSUNNY   71  41  33 VRB5      30.36F
ALTOONA        MOSUNNY   74  38  27 CALM      30.35F
STATE COLLEGE  SUNNY     77  43  29 SW5       30.32F
WILLIAMSPORT   MOSUNNY   75  45  34 S5        30.29F
SELINSGROVE    MOSUNNY   77  48  35 SW6       30.32F
FT INDIANTOWN  PTSUNNY   76  44  32 S9        30.31F
CAPITAL CITY   SUNNY     77  39  25 VRB3      30.33S
HARRISBURG     PTSUNNY   77  50  38 SE3       30.32F
YORK           SUNNY     77  45  32 NW7       30.33F
$$

PAZ038>040-043-044-047-048-054-055-060>062-067>071-241800-
EASTERN PENNSYLVANIA

CITY           SKY/WX    TMP DP  RH WIND       PRES   REMARKS
SCRANTON       SUNNY     77  36  22 VRB7G20   30.29F
MOUNT POCONO   SUNNY     71  32  23 VRB5      30.33F
ALLENTOWN      SUNNY     79  37  22 W8        30.31F
QUAKERTOWN*    SUNNY     75  37  25 SW6       30.33F
READING        MOSUNNY   78  36  21 W8        30.31F
LANCASTER      SUNNY     76  39  26 NW5       30.33F
COATESVILLE    SUNNY     73  52  46 W5        30.35F
POTTSTOWN      SUNNY     76  36  23 VRB5      30.33F
BLUE BELL      SUNNY     79  46  31 SW5       30.32F
DOYLESTOWN     SUNNY     75  35  23 MISG      30.31F
WILLOW GROVE   NOT AVBL
NORTH PHILA    SUNNY     78  49  35 SW6       30.34F
PHILADELPHIA   PTSUNNY   74  52  46 W9        30.33F
$$



USA.gov is the U.S. government's official web portal to all federal, state and local government web resources and services.